Location: Melizzano
(41.1500°N, 14.5000°E)
Time: 08:13:58
(UTC+00:00)

Meteor 2-12 Rocket - Pass Details

Date: 11 May 2021
Orbit: 935 x 958 km, 82.5° (Epoch: 15 June)

Event Time Altitude Azimuth Distance (km) Brightness Sun altitude
Rises 20:55:33 0° 351° (N) 3,609 8.6 -24.3°
Reaches altitude 10° 20:58:03 10° 352° (N) 2,658 7.7 -24.5°
Maximum altitude 21:04:08 90° 110° (ESE) 941 4.3 -25.1°
Enters shadow 21:05:22 59° 173° (S) 1,068 4.3 -25.2°
